Location: Observatoire de l'Aigle
(47.0607°N, 71.3152°W)
Time: 06:17:00
(UTC-04:00)

Daily predictions for brighter satellites

Satellite Brightness Start Highest point End
(mag) Time Altitude Azimuth Time Altitude Azimuth Time Altitude Azimuth
Cosmos 2228 3.3 21:00:27 10° NNW 21:04:54 77° W 21:09:17 10° S
Meteor 2-4 Rocket 4.1 21:00:45 10° SSW 21:06:38 79° WNW 21:12:37 10° N
Cosmos 2333 Rocket 4.2 21:02:51 10° WSW 21:07:57 34° NW 21:13:07 10° NNE
YAOGAN 6 3.7 21:05:49 10° SE 21:09:08 31° ENE 21:12:29 10° N
Terra 3.8 21:06:42 10° E 21:09:25 15° ENE 21:12:09 10° NNE
Cosmos 1943 4.2 21:11:48 10° SSE 21:16:23 26° ESE 21:21:00 10° NE
Nimbus 7 Rocket 4.4 21:11:24 10° NNE 21:17:24 72° ESE 21:23:17 10° S
Cosmos 1943 Rocket 3.8 21:13:21 10° N 21:17:44 23° NE 21:22:07 10° E
MetOp-A 4.2 21:15:08 10° SSE 21:20:26 67° ENE 21:25:46 10° N
H-2A R/B 3.6 21:17:42 10° ESE 21:21:27 22° ENE 21:25:16 10° NNE
Okean 2 4.5 21:18:06 10° SSW 21:22:10 49° WNW 21:26:16 10° N
UNK 4.4 21:18:04 10° NNE 21:23:21 52° ESE 21:28:51 10° S
PSLV R/B 3.3 21:23:27 10° S 21:26:32 76° WSW 21:29:40 10° NNW
Aureole 2 Rocket 3.4 21:24:11 10° SW 21:27:57 55° WNW 21:31:24 10° NNE
Lacrosse 4 Rocket 3.1 21:26:48 11° SE 21:28:46 15° ESE 21:31:07 10° ENE
SeaSat 1 2.6 21:24:55 10° SSE 21:29:51 75° WSW 21:34:49 10° NNW
SPOT 1/Viking Rocket 3.8 21:24:51 10° SSE 21:29:54 59° ENE 21:34:58 10° N
CZ-4B R/B 3.7 21:30:36 10° NNE 21:35:34 53° E 21:40:38 10° S
Cosmos 1238 4.1 21:35:58 10° S 21:39:03 69° E 21:42:04 10° NNE
DEBRIS 4.4 21:40:04 10° WNW 21:43:42 19° WSW 21:45:43 10° S
Cosmos 1766 4.3 21:44:50 10° N 21:48:28 32° ENE 21:51:01 16° SE
ATLAS 3B R/B 3.3 21:45:43 10° S 21:52:51 43° ESE 21:59:51 10° NE
Cosmos 1758 Rocket 4.3 21:49:55 15° SSE 21:52:59 35° E 21:56:57 10° NNE
Tsikada Rocket 4.4 21:47:46 10° SSW 21:54:09 70° W 22:00:32 10° N
ARGOS 3.2 21:51:45 13° SSE 21:56:33 80° ENE 22:02:00 10° NNW
Cosmos 2369 Rocket 2.2 21:51:26 10° NNW 21:57:09 87° ENE 22:01:39 17° SSE
CARTOSAT-1 4.5 21:54:17 16° SE 21:57:12 36° ENE 22:01:11 10° N
USA 234 3.5 22:01:10 16° SE 22:06:30 62° SW 22:13:01 10° WNW
SL-16 R/B 4.4 22:03:04 10° WSW 22:07:56 29° NW 22:12:51 10° N
Atlas Centaur 2 4.0 22:03:08 10° SW 22:09:03 23° S 22:12:43 18° SE
Cosmos 1825 Rocket 3.6 22:06:00 10° S 22:10:28 89° ENE 22:14:56 10° N
NOAA 11 4.2 22:08:02 16° SSE 22:12:30 84° WSW 22:17:58 10° NNW
CZ-4C R/B 3.4 22:10:25 20° SSE 22:13:20 85° ENE 22:17:25 10° NNW
Cosmos 407 Rocket 3.6 22:11:19 12° S 22:16:00 55° ESE 22:21:05 10° NNE
SL-8 R/B 3.9 22:11:34 10° W 22:16:26 77° N 22:21:17 10° E
ISS -3.4 22:15:09 10° SW 22:18:22 59° SSE 22:21:36 10° ENE
CZ-4 R/B 3.9 22:14:06 10° NNE 22:19:07 90° W 22:24:08 10° SSW
SL-27 R/B 3.9 22:21:09 19° E 22:21:09 19° E 22:23:35 10° NE
Cosmos 1805 4.4 22:17:56 10° N 22:21:30 31° ENE 22:23:10 22° ESE
PSLV R/B 4.2 22:19:27 10° WSW 22:22:36 30° S 22:22:59 29° SSE
Cosmos 2263 4.2 22:17:33 10° NNW 22:23:12 82° WSW 22:26:58 22° SSE
SL-08 RB Rocket 3.9 22:21:16 18° S 22:24:36 67° WSW 22:29:07 10° NNW
Meteor 1-22 Rocket 4.4 22:22:29 10° NNW 22:28:01 71° W 22:32:25 18° S
Cosmos 1953 2.8 22:25:18 10° N 22:29:09 46° ENE 22:30:51 28° SE
Cosmos 1634 Rocket 4.4 22:23:09 10° NNW 22:29:13 60° W 22:34:40 13° S
COSMOS 2406 4.3 22:27:26 22° SE 22:29:26 26° ESE 22:34:07 10° NE
USA 238 DEB 4.5 22:26:24 20° SSE 22:30:08 32° ESE 22:36:12 10° NE
USA 238 4.5 22:26:35 20° SSE 22:30:14 31° ESE 22:36:17 10° NE
Landsat 7 3.8 22:27:37 22° S 22:30:45 80° WSW 22:35:32 10° NNW
Lacrosse 5 rocket 3.8 22:29:08 10° WNW 22:32:27 24° NNW 22:35:55 10° NE
Spot 4 4.0 22:30:07 25° SSE 22:32:50 64° ENE 22:37:35 10° N
COSMOS 2455 3.3 22:27:37 10° SW 22:33:35 63° NW 22:39:35 10° NNE
Cosmos 1954 Rocket 4.3 22:32:27 23° SSE 22:35:30 48° ESE 22:40:35 10° NNE
Lacrosse 5 4.0 22:40:56 10° NW 22:45:12 26° N 22:49:29 10° ENE
CZ-4B R/B 4.3 22:44:57 10° ENE 22:45:20 10° ENE 22:45:42 10° NE
Terra 1.8 22:43:53 26° S 22:46:33 79° WSW 22:51:20 10° NNW
Cosmos 1346 Rocket 3.8 22:48:51 13° SW 22:52:06 44° WNW 22:55:54 10° N
Cosmos 2279 Rocket 4.2 22:46:25 10° NNW 22:52:37 68° W 22:56:57 21° S
IGS 5A 3.5 22:51:07 31° S 22:53:01 72° WSW 22:57:12 10° NNW
Cosmos 1544 4.0 22:50:58 10° N 22:54:30 38° ENE 22:55:27 32° ESE
Cosmos 2084 3.3 22:52:08 10° NW 22:56:16 85° NE 22:57:57 36° SE
Cosmos 1943 3.9 22:54:30 10° SW 23:00:04 55° WNW 23:05:42 10° NNE
H-2A R/B 2.4 22:57:40 25° S 23:00:28 57° W 23:05:29 10° NNW
Cosmos 1707 4.4 23:00:10 20° E 23:00:30 20° E 23:03:26 10° NE
Geosat 4.2 22:56:20 10° NNE 23:01:22 75° WNW 23:06:23 10° SW
Cosmos 1943 Rocket 2.2 22:56:31 10° NNW 23:02:03 73° WSW 23:04:49 31° S
H-2A R/B 4.4 23:00:58 10° ENE 23:02:45 13° E 23:02:45 13° E
Cosmos 1842 3.5 23:04:02 28° SSW 23:05:55 64° W 23:09:50 10° N
Cosmos 2221 3.9 23:02:54 10° NNE 23:06:35 26° ENE 23:07:58 22° ESE
Lacrosse 4 Rocket 1.8 23:03:03 10° SW 23:07:00 59° NW 23:11:05 10° NNE
Cosmos 1570 Rocket 4.0 23:01:43 10° NNW 23:07:07 86° ENE 23:09:35 34° SSE
Cosmos 1932 4.4 23:03:15 19° SSW 23:07:40 63° ESE 23:13:51 10° NE
Cosmos-2242 3.6 23:05:22 10° NNW 23:09:40 53° W 23:11:38 29° SSW
Cosmos 1850 Rocket 4.3 23:09:59 34° SSE 23:11:51 50° ESE 23:16:53 10° NNE
Cosmos 1758 3.8 23:10:48 10° NNW 23:14:51 57° W 23:16:19 35° SSW
Cosmos 1607 4.3 23:12:49 31° SSE 23:15:12 44° ESE 23:21:02 10° NE
Cosmos 1656 Rocket 3.7 23:11:30 10° NNW 23:17:14 77° ENE 23:19:52 33° SE
DMSP B5D2-2 4.5 23:17:22 10° N 23:22:36 63° WNW 23:26:13 20° SSW
Okean 3 Rocket 4.0 23:23:15 40° SE 23:24:10 47° E 23:28:25 10° NNE
Cosmos 1689 Rocket 4.2 23:23:57 19° ENE 23:24:19 20° ENE 23:26:44 10° NNE
Meteor 2-5 Rocket 4.1 23:23:06 33° SSE 23:25:23 52° E 23:30:58 10° NNE
Cosmos 1023 Rocket 4.4 23:22:55 31° SSW 23:25:33 83° ESE 23:30:51 10° NNE
IKONOS-2 4.4 23:29:06 48° SSE 23:30:16 89° ENE 23:34:34 10° NNW
Cosmos 1733 3.4 23:27:11 10° N 23:31:03 58° ENE 23:31:40 50° ESE
Cosmos 1140 Rocket 3.4 23:28:55 30° SSW 23:31:36 89° W 23:36:54 10° NNE
Cosmos 2369 Rocket 4.3 23:37:14 10° WNW 23:40:21 15° W 23:43:27 10° SW
ATLAS 3B R/B 3.5 23:35:58 10° WSW 23:43:31 57° NW 23:50:51 10° NE
COSMOS 2487 2.5 23:47:19 65° ESE 23:47:19 65° ESE 23:50:52 10° NNE
ALOS 2 3.0 23:46:16 40° ESE 23:47:25 53° ENE 23:51:43 10° N
NOSS 3-2 (A) 4.0 23:47:21 35° SSE 23:48:49 40° ESE 23:54:55 10° NE
Cosmos 1553 Rocket 4.5 23:43:12 10° N 23:49:22 52° ENE 23:52:16 30° SE
Cosmos 1470 3.0 23:49:26 10° NNW 23:53:16 56° W 23:53:49 50° SW
Cosmos 1408 Rocket 4.1 23:53:16 41° ESE 23:53:58 45° E 23:58:15 10° NNE
ISS -2.0 23:51:47 10° W 23:54:55 41° NNW 23:58:03 10° ENE
SL-27 R/B 4.2 23:54:51 20° W 23:56:15 27° WNW 23:59:10 10° N
